Location: Pedimozza
(42.0500°N, 9.3500°E)
Time: 22:43:01
(UTC+00:00)

Aureole 3 Rocket - Pass Details

Date: 19 August 2019
Orbit: 398 x 1742 km, 82.5° (Epoch: 16 September)

Event Time Altitude Azimuth Distance (km) Brightness Sun altitude
Exits shadow 19:57:31 36° 100° (E) 848 3.3 -17.3°
Maximum altitude 19:57:37 36° 96° (E) 843 3.3 -17.3°
Drops below altitude 10° 20:00:47 10° 27° (NNE) 1,608 5.3 -17.8°
Sets 20:02:43 0° 18° (NNE) 2,405 6.3 -18.1°
